TimeEDT,TemperatureF,Dew PointF,Humidity,Sea Level PressureIn,VisibilityMPH,Wind Direction,Wind SpeedMPH,Gust SpeedMPH,PrecipitationIn,Events,Conditions,WindDirDegrees,DateUTC
9:55 AM,53.6,50.0,88,30.13,10.0,ENE,3.5,-,N/A,,Clear,60,2012-10-18 13:55:00
10:15 AM,53.6,50.0,88,30.13,10.0,ESE,3.5,-,N/A,,Clear,110,2012-10-18 14:15:00
10:35 AM,55.4,50.0,82,30.13,10.0,East,4.6,-,N/A,,Clear,90,2012-10-18 14:35:00
10:55 AM,55.4,50.0,82,30.14,10.0,ESE,6.9,-,N/A,,Clear,110,2012-10-18 14:55:00
11:15 AM,55.4,50.0,82,30.14,10.0,ESE,5.8,-,N/A,,Clear,120,2012-10-18 15:15:00
11:35 AM,57.2,51.8,82,30.14,10.0,ESE,5.8,-,N/A,,Clear,120,2012-10-18 15:35:00
11:55 AM,57.2,48.2,72,30.14,10.0,South,6.9,-,N/A,,Partly Cloudy,170,2012-10-18 15:55:00
12:15 PM,57.2,42.8,59,30.14,10.0,SE,9.2,-,N/A,,Clear,140,2012-10-18 16:15:00
12:35 PM,57.2,44.6,63,30.14,10.0,South,8.1,-,N/A,,Clear,170,2012-10-18 16:35:00
12:55 PM,57.2,44.6,63,30.14,10.0,South,9.2,-,N/A,,Clear,170,2012-10-18 16:55:00
1:15 PM,57.2,46.4,67,30.13,10.0,SSE,8.1,-,N/A,,Clear,160,2012-10-18 17:15:00
1:35 PM,57.2,48.2,72,30.13,10.0,SSE,8.1,-,N/A,,Clear,150,2012-10-18 17:35:00
1:55 PM,57.2,48.2,72,30.13,10.0,South,8.1,-,N/A,,Clear,170,2012-10-18 17:55:00
2:15 PM,57.2,46.4,67,30.13,10.0,SSE,10.4,-,N/A,,Clear,160,2012-10-18 18:15:00
2:35 PM,57.2,48.2,72,30.12,10.0,SSE,8.1,-,N/A,,Clear,160,2012-10-18 18:35:00
2:55 PM,57.2,48.2,72,30.13,10.0,SSE,10.4,-,N/A,,Clear,150,2012-10-18 18:55:00
3:15 PM,55.4,48.2,77,30.13,10.0,SE,10.4,-,N/A,,Clear,140,2012-10-18 19:15:00
3:35 PM,55.4,48.2,77,30.13,10.0,SSE,9.2,-,N/A,,Clear,150,2012-10-18 19:35:00
3:55 PM,57.2,48.2,72,30.14,10.0,South,11.5,-,N/A,,Clear,170,2012-10-18 19:55:00
4:15 PM,55.4,48.2,77,30.14,10.0,South,9.2,-,N/A,,Clear,170,2012-10-18 20:15:00
4:35 PM,55.4,48.2,77,30.14,10.0,South,10.4,-,N/A,,Clear,180,2012-10-18 20:35:00
4:55 PM,55.4,48.2,77,30.13,10.0,SSE,9.2,-,N/A,,Clear,150,2012-10-18 20:55:00
5:15 PM,55.4,48.2,77,30.12,10.0,SSE,5.8,-,N/A,,Clear,150,2012-10-18 21:15:00
5:35 PM,53.6,48.2,82,30.12,10.0,SE,5.8,-,N/A,,Clear,140,2012-10-18 21:35:00
5:55 PM,53.6,48.2,82,30.13,10.0,SE,4.6,-,N/A,,Clear,140,2012-10-18 21:55:00
6:15 PM,51.8,48.2,88,30.14,10.0,SE,4.6,-,N/A,,Clear,140,2012-10-18 22:15:00
6:35 PM,51.8,48.2,88,30.14,10.0,SE,4.6,-,N/A,,Clear,140,2012-10-18 22:35:00
7:15 PM,53.6,48.2,82,30.14,10.0,SE,5.8,-,N/A,,Scattered Clouds,130,2012-10-18 23:15:00
7:35 PM,51.8,48.2,88,30.13,10.0,ESE,5.8,-,N/A,,Clear,110,2012-10-18 23:35:00
7:55 PM,51.8,48.2,88,30.13,10.0,ESE,5.8,-,N/A,,Clear,110,2012-10-18 23:55:00
8:15 PM,51.8,48.2,88,30.13,10.0,ESE,5.8,-,N/A,,Clear,120,2012-10-19 00:15:00
8:35 PM,51.8,50.0,94,30.15,10.0,SE,3.5,-,N/A,,Clear,130,2012-10-19 00:35:00
8:55 PM,51.8,48.2,88,30.15,10.0,ESE,4.6,-,N/A,,Clear,120,2012-10-19 00:55:00
9:15 PM,51.8,48.2,88,30.15,10.0,ESE,5.8,-,N/A,,Clear,120,2012-10-19 01:15:00
9:35 PM,50.0,48.2,94,30.16,10.0,SE,4.6,-,N/A,,Clear,130,2012-10-19 01:35:00
9:55 PM,51.8,48.2,88,30.17,10.0,SE,4.6,-,N/A,,Clear,130,2012-10-19 01:55:00
10:15 PM,51.8,48.2,88,30.17,10.0,SE,4.6,-,N/A,,Scattered Clouds,130,2012-10-19 02:15:00
10:35 PM,51.8,50.0,94,30.17,10.0,ESE,4.6,-,N/A,,Scattered Clouds,110,2012-10-19 02:35:00
10:55 PM,51.8,50.0,94,30.18,10.0,Calm,Calm,-,N/A,,Clear,0,2012-10-19 02:55:00
11:15 PM,46.4,44.6,93,30.18,3.0,ESE,3.5,-,N/A,,Partly Cloudy,110,2012-10-19 03:15:00
11:35 PM,46.4,44.6,93,30.17,8.0,Calm,Calm,-,N/A,,Clear,0,2012-10-19 03:35:00
11:55 PM,48.2,48.2,100,30.17,7.0,Calm,Calm,-,N/A,,Clear,0,2012-10-19 03:55:00